Change the Weather History Date:

Friday, May 9, 2014

  Actual Average (KBIS) Record (KBIS)
Temperature  
Mean Temperature 43 °F 53 °F  
Max Temperature 60 °F 67 °F 90 °F (1992)
Min Temperature 26 °F 40 °F 20 °F (1966)
Degree Days  
Heating Degree Days 22 12  
Month to date heating degree days 120  
Since 1 July heating degree days 8275  
Cooling Degree Days 0 0  
Month to date cooling degree days 0  
Year to date cooling degree days 1  
Moisture  
Dew Point 32 °F    
Average Humidity 66    
Maximum Humidity 100    
Minimum Humidity 29    
Precipitation  
Precipitation 0.00 in 0.07 in 1.16 in (1926)
Month to date precipitation 0.59  
Year to date precipitation 3.66  
Snow  
Snow 0.00 in 0.00 in 7.00 in (1965)
Month to date snowfall 0.3  
Since 1 July snowfall 51.1  
Snow Depth -    
Sea Level Pressure  
Sea Level Pressure 29.76 in    
Wind  
Wind Speed 5 mph (WSW)    
Max Wind Speed 12 mph    
Max Gust Speed 16 mph    
Visibility 10 miles    
Events      
T = Trace of Precipitation, MM = Missing Value Source: NWS Daily Summary

Daily Weather History Graph

Daily Weather History Graph

Search for Another Location

Airport or City:

Trip Planner

Search our weather history database for the weather conditions in past years. The results will help you decide how hot, cold, wet, or windy it might be!

Date:

Astronomy

May. 09, 2014 Rise Set
Actual Time 6:15 AM CDT 8:59 PM CDT
Civil Twilight 5:41 AM CDT 9:34 PM CDT
Nautical Twilight 4:57 AM CDT 10:18 PM CDT
Astronomical Twilight 4:06 AM CDT 11:09 PM CDT
Moon 3:42 PM CDT (5/9) 3:37 AM CDT (5/9)
Length of Visible Light 15h 53m
Length of Day
14h 44m
Waxing Gibbous, 74% of the Moon is Illuminated
May 9
Waxing Gibbous
May 14
Full
May 21
Last Quarter
May 28
New
Jun 5
First Quarter

Hourly Weather History & Observations

Time (CDT) Temp. Windchill Dew Point Humidity Pressure Visibility Wind Dir Wind Speed Gust Speed Precip Events Conditions
12:15 AM 37.4 °F 32.8 °F 37.4 °F 100% 29.81 in 10.0 mi West 5.8 mph - N/A   Scattered Clouds
12:35 AM 37.4 °F 33.8 °F 37.4 °F 100% 29.81 in 10.0 mi West 4.6 mph - N/A   Scattered Clouds
12:55 AM 35.6 °F 31.7 °F 35.6 °F 100% 29.81 in 10.0 mi West 4.6 mph - N/A   Clear
1:15 AM 32.0 °F 28.7 °F 32.0 °F 100% 29.80 in 10.0 mi SW 3.5 mph - N/A   Clear
1:35 AM 33.8 °F 30.8 °F 33.8 °F 100% 29.80 in 10.0 mi West 3.5 mph - N/A   Clear
1:55 AM 32.0 °F 27.5 °F 32.0 °F 100% 29.80 in 10.0 mi WSW 4.6 mph - N/A   Clear
2:15 AM 32.0 °F 28.7 °F 32.0 °F 100% 29.80 in 10.0 mi WSW 3.5 mph - N/A   Clear
2:35 AM 32.0 °F 28.7 °F 32.0 °F 100% 29.79 in 10.0 mi WSW 3.5 mph - N/A   Clear
2:55 AM 32.0 °F 27.5 °F 32.0 °F 100% 29.79 in 10.0 mi WSW 4.6 mph - N/A   Clear
3:15 AM 32.0 °F 27.5 °F 32.0 °F 100% 29.78 in 10.0 mi WSW 4.6 mph - N/A   Clear
3:35 AM 32.0 °F 28.7 °F 32.0 °F 100% 29.78 in 10.0 mi WSW 3.5 mph - N/A   Clear
4:15 AM 32.0 °F 28.7 °F 32.0 °F 100% 29.78 in 10.0 mi West 3.5 mph - N/A   Clear
4:35 AM 32.0 °F 27.5 °F 32.0 °F 100% 29.78 in 10.0 mi WSW 4.6 mph - N/A   Clear
4:55 AM 28.4 °F 22.2 °F 28.4 °F 100% 29.78 in 10.0 mi West 5.8 mph - N/A   Clear
5:15 AM 28.4 °F 21.2 °F 28.4 °F 100% 29.78 in 10.0 mi West 6.9 mph - N/A   Clear
5:35 AM 28.4 °F 23.3 °F 28.4 °F 100% 29.78 in 10.0 mi WSW 4.6 mph - N/A   Clear
5:55 AM 26.6 °F 21.2 °F 26.6 °F 100% 29.78 in 10.0 mi West 4.6 mph - N/A   Clear
6:15 AM 26.6 °F 21.2 °F 26.6 °F 100% 29.79 in 10.0 mi WSW 4.6 mph - N/A   Clear
6:35 AM 28.4 °F 23.3 °F 28.4 °F 100% 29.79 in 10.0 mi WSW 4.6 mph - N/A   Clear
7:15 AM 32.0 °F 28.7 °F 32.0 °F 100% 29.80 in 10.0 mi WSW 3.5 mph - N/A   Clear
7:35 AM 33.8 °F - 33.8 °F 100% 29.80 in 10.0 mi Calm Calm - N/A   Clear
7:55 AM 35.6 °F - 35.6 °F 100% 29.80 in 10.0 mi Calm Calm - N/A   Clear
8:15 AM 37.4 °F - 35.6 °F 93% 29.80 in 10.0 mi Calm Calm - N/A   Clear
8:35 AM 37.4 °F 34.9 °F 35.6 °F 93% 29.80 in 10.0 mi West 3.5 mph - N/A   Clear
8:55 AM 39.2 °F 37.0 °F 37.4 °F 93% 29.80 in 10.0 mi WNW 3.5 mph - N/A   Clear
9:15 AM 41.0 °F 39.0 °F 37.4 °F 87% 29.80 in 10.0 mi WNW 3.5 mph - N/A   Clear
9:35 AM 44.6 °F - 37.4 °F 76% 29.79 in 10.0 mi Calm Calm - N/A   Clear
9:55 AM 46.4 °F 45.2 °F 35.6 °F 66% 29.80 in 8.0 mi NW 3.5 mph - N/A   Clear
10:15 AM 46.4 °F - 33.8 °F 62% 29.79 in 2.5 mi Calm Calm - N/A   Haze
10:35 AM 48.2 °F - 32.0 °F 54% 29.79 in 10.0 mi NW 5.8 mph - N/A   Clear
10:55 AM 50.0 °F - 33.8 °F 54% 29.79 in 10.0 mi NNW 4.6 mph - N/A   Clear
11:15 AM 50.0 °F - 33.8 °F 54% 29.78 in 10.0 mi NW 8.1 mph - N/A   Clear
11:35 AM 51.8 °F - 32.0 °F 47% 29.78 in 10.0 mi Calm Calm - N/A   Clear
11:55 AM 53.6 °F - 32.0 °F 44% 29.78 in 10.0 mi North 5.8 mph - N/A   Clear
12:15 PM 53.6 °F - 30.2 °F 41% 29.77 in 10.0 mi WNW 6.9 mph - N/A   Clear
12:35 PM 55.4 °F - 30.2 °F 38% 29.77 in 10.0 mi NW 10.4 mph 16.1 mph N/A   Clear
12:55 PM 55.4 °F - 30.2 °F 38% 29.76 in 10.0 mi NNW 11.5 mph - N/A   Clear
1:15 PM 55.4 °F - 30.2 °F 38% 29.76 in 10.0 mi West 3.5 mph - N/A   Clear
1:35 PM 55.4 °F - 28.4 °F 36% 29.75 in 10.0 mi SE 3.5 mph - N/A   Clear
1:55 PM 57.2 °F - 28.4 °F 33% 29.75 in 10.0 mi West 3.5 mph - N/A   Clear
2:15 PM 57.2 °F - 28.4 °F 33% 29.75 in 10.0 mi Calm Calm - N/A   Clear
2:35 PM 57.2 °F - 28.4 °F 33% 29.75 in 10.0 mi NW 6.9 mph - N/A   Clear
2:55 PM 57.2 °F - 28.4 °F 33% 29.75 in 10.0 mi WSW 6.9 mph - N/A   Clear
3:15 PM 57.2 °F - 28.4 °F 33% 29.75 in 10.0 mi WSW 6.9 mph - N/A   Clear
3:35 PM 59.0 °F - 28.4 °F 31% 29.74 in 10.0 mi WSW 4.6 mph - N/A   Clear
3:55 PM 59.0 °F - 28.4 °F 31% 29.74 in 10.0 mi WNW 3.5 mph - N/A   Clear
4:15 PM 59.0 °F - 28.4 °F 31% 29.73 in 10.0 mi North 5.8 mph - N/A   Clear
4:35 PM 60.8 °F - 28.4 °F 29% 29.73 in 10.0 mi NW 6.9 mph - N/A   Clear
4:55 PM 59.0 °F - 28.4 °F 31% 29.73 in 10.0 mi Calm Calm - N/A   Clear
5:15 PM 60.8 °F - 30.2 °F 31% 29.73 in 10.0 mi WNW 6.9 mph - N/A   Clear
5:35 PM 60.8 °F - 28.4 °F 29% 29.72 in 10.0 mi West 5.8 mph - N/A   Clear
5:55 PM 60.8 °F - 28.4 °F 29% 29.72 in 10.0 mi WNW 8.1 mph - N/A   Clear
6:15 PM 60.8 °F - 28.4 °F 29% 29.72 in 10.0 mi WNW 9.2 mph - N/A   Clear
6:35 PM 60.8 °F - 28.4 °F 29% 29.71 in 10.0 mi SW 3.5 mph - N/A   Clear
6:55 PM 60.8 °F - 28.4 °F 29% 29.71 in 10.0 mi WNW 4.6 mph - N/A   Clear
7:15 PM 60.8 °F - 28.4 °F 29% 29.72 in 10.0 mi West 4.6 mph - N/A   Clear
7:35 PM 59.0 °F - 30.2 °F 34% 29.72 in 10.0 mi WSW 3.5 mph - N/A   Clear
7:55 PM 59.0 °F - 32.0 °F 36% 29.72 in 10.0 mi SSW 4.6 mph - N/A   Clear
8:15 PM 59.0 °F - 33.8 °F 39% 29.73 in 10.0 mi SW 3.5 mph - N/A   Clear
8:35 PM 53.6 °F - 37.4 °F 54% 29.73 in 10.0 mi SSE 4.6 mph - N/A   Clear
8:55 PM 51.8 °F - 35.6 °F 54% 29.73 in 10.0 mi SSE 4.6 mph - N/A   Clear
9:15 PM 48.2 °F - 35.6 °F 62% 29.73 in 10.0 mi SE 5.8 mph - N/A   Clear
9:35 PM 46.4 °F 42.9 °F 33.8 °F 62% 29.74 in 10.0 mi SSE 6.9 mph - N/A   Clear
9:55 PM 44.6 °F 40.2 °F 33.8 °F 66% 29.74 in 10.0 mi SSE 8.1 mph - N/A   Clear
10:15 PM 44.6 °F 40.2 °F 35.6 °F 71% 29.75 in 10.0 mi SSE 8.1 mph - N/A   Clear
10:35 PM 44.6 °F 40.2 °F 35.6 °F 71% 29.75 in 10.0 mi SSE 8.1 mph - N/A   Clear
10:55 PM 42.8 °F 38.0 °F 35.6 °F 76% 29.75 in 10.0 mi SSE 8.1 mph - N/A   Clear
11:15 PM 41.0 °F 35.2 °F 37.4 °F 87% 29.75 in 10.0 mi SSE 9.2 mph - N/A   Clear
11:35 PM 42.8 °F 37.5 °F 37.4 °F 81% 29.75 in 10.0 mi SSE 9.2 mph - N/A   Clear
11:55 PM 41.0 °F 35.2 °F 35.6 °F 81% 29.75 in 10.0 mi SSE 9.2 mph - N/A   Clear